[[{"header":{"parameterUnit":"m.s-1","parameterCategory":1,"la1":30.2991,"la2":30.254,"lo1":-89.0895,"lo2":-89.0444,"dx":0.0017,"dy":0.0017,"nx":28,"ny":28,"refTime":"2023-02-06T09:00:00:Z","depth":0,"parameterNumber":2,"parameterNumberName":"U-component_of_WINDS"},"data":[0,0,0,0,0,0,0,0,0,0,0,0,0,0,0,0,0,0,0,0,0,0,0,0,0,0,0,0,0,0,0,0,0,0,0,0,0,0,0,0,0,0,0,0,0,0,0,0,0,0,0,0,0,0,0,0,0,0,-3.5335,-3.5336,0,-3.5372,-3.5373,-3.5373,-3.5303,-3.5301,-3.5298,-3.5296,-3.5334,-3.5337,-3.534,0,0,0,0,0,0,0,0,0,0,0,0,0,-3.5205,-3.5207,-3.5335,-3.5336,-3.5336,-3.5372,-3.5373,-3.5373,-3.5303,-3.5301,-3.5298,-3.5295,-3.5333,-3.5336,-3.534,0,0,0,0,0,0,0,0,0,0,0,0,0,-3.5253,-3.5208,-3.5335,-3.5306,-3.5303,-3.5372,-3.5373,-3.5373,-3.5304,-3.53,-3.5297,-3.5294,-3.5332,-3.5336,-3.5341,-3.544,0,0,-3.5355,-3.5357,0,0,0,0,0,0,0,0,-3.5251,-3.5258,-3.5309,-3.5308,-3.5305,-3.5329,-3.534,-3.5396,-3.5305,-3.5304,-3.5296,-3.5292,-3.5335,-3.5339,-3.5354,-3.5441,-3.5443,-3.5356,-3.5359,-3.5361,-3.5362,0,0,0,0,0,0,0,-3.5247,-3.5256,-3.535,-3.531,-3.5308,-3.5291,-3.5294,-3.535,-3.5338,-3.5304,-3.5299,-3.5304,-3.5333,-3.535,-3.5354,-3.5444,-3.5356,-3.536,-3.5363,-3.5365,-3.5615,-3.5618,0,0,0,0,0,0,-3.5248,-3.5254,-3.5348,-3.5351,-3.5269,-3.5296,-3.5299,-3.5325,-3.5338,-3.5336,-3.5307,-3.53,-3.5343,-3.5349,-3.5355,-3.5471,-3.5361,-3.5365,-3.5368,-3.5611,-3.5615,-3.562,0,0,0,0,0,0,-3.5245,-3.5257,-3.5347,-3.5301,-3.5311,-3.5302,-3.5331,-3.5328,-3.5344,-3.534,-3.5338,-3.5326,-3.5341,-3.5349,-3.5419,-3.5472,-3.5367,-3.5372,-3.5606,-3.5612,-3.5617,-3.5705,0,0,0,0,0,0,-3.5242,-3.5256,-3.5294,-3.5302,-3.5314,-3.541,-3.5335,-3.5331,-3.5352,-3.5344,-3.5357,-3.5356,-3.5338,-3.5413,-3.5424,-3.5476,-3.5375,-3.5602,-3.5609,-3.5616,-3.5697,-3.5713,-3.5727,0,0,0,0,0,-3.5237,-3.5317,-3.5296,-3.5308,-3.536,-3.5414,-3.542,-3.5399,-3.5357,-3.5394,-3.5392,-3.5355,-3.5465,-3.542,-3.5433,-3.5487,-3.5598,-3.5607,-3.5615,-3.5691,-3.571,-3.5726,0,0,0,0,0,0,-3.5314,-3.5317,-3.5294,-3.5379,-3.5397,-3.5402,-3.5448,-3.542,-3.5449,-3.5441,-3.5413,-3.5416,-3.5493,-3.5497,-3.5448,-3.5584,-3.5524,-3.5536,-3.5578,-3.5596,-3.561,-3.5607,-3.5379,0,0,0,0,0,-3.5341,-3.5384,-3.5384,-3.5459,-3.5469,-3.5458,-3.548,-3.5462,-3.5479,-3.5486,-3.5489,-3.5507,-3.5545,-3.5571,-3.5606,-3.5699,-3.57,-3.5742,-3.5757,-3.5769,-3.5779,-3.5828,-3.5846,-3.5648,-3.5647,-3.5647,0,0,-3.5396,-3.5403,-3.5432,-3.5474,-3.5486,-3.5531,-3.5464,-3.5514,-3.5548,-3.5494,-3.556,-3.5564,-3.5582,-3.5664,-3.57,-3.567,-3.5834,-3.578,-3.5789,-3.5792,-3.5838,-3.5857,-3.5874,-3.5653,-3.5652,-3.5651,0,0,-3.552,-3.553,-3.5593,-3.5606,-3.5625,-3.5617,-3.5633,-3.5643,-3.5643,-3.5709,-3.567,-3.5709,-3.5776,-3.5791,-3.5807,-3.5939,-3.5906,-3.5951,-3.6026,-3.6074,-3.609,-3.6104,-3.615,-3.6167,-3.5961,-3.5961,-3.5962,0,-3.5586,-3.5652,-3.5629,-3.5682,-3.5702,-3.5657,-3.572,-3.5734,-3.5764,-3.5779,-3.5745,-3.5828,-3.5837,-3.5922,-3.5954,-3.5969,-3.5986,-3.5948,-3.609,-3.6103,-3.6116,-3.6159,-3.6177,-3.5967,-3.5966,-3.5966,-3.5965,0,-3.5733,-3.5779,-3.5828,-3.5858,-3.5884,-3.5942,-3.5928,-3.5957,-3.5938,-3.5933,-3.6002,-3.6012,-3.6048,-3.6068,-3.6049,-3.615,-3.6131,-3.6094,-3.6033,-3.614,-3.6181,-3.6197,-3.5974,-3.5972,-3.5971,-3.5969,0,0,-3.5903,-3.5921,-3.5939,-3.5952,-3.597,-3.6006,-3.6063,-3.6099,-3.6124,-3.6146,-3.6193,-3.6251,-3.6218,-3.6237,-3.622,-3.6262,-3.6365,-3.622,-3.622,-3.6246,-3.6476,-3.6503,-3.6522,-3.6344,-3.6348,-3.635,-3.6474,0,-3.6025,-3.6122,-3.6104,-3.6199,-3.6242,-3.62,-3.625,-3.6267,-3.6265,-3.6301,-3.6299,-3.6341,-3.6294,-3.6305,-3.6345,-3.6344,-3.6411,-3.6335,-3.6387,-3.6389,-3.6382,-3.6544,-3.6571,-3.6688,-3.649,-3.6493,-3.6495,0,-3.6179,-3.6208,-3.6308,-3.632,-3.6337,-3.6382,-3.6413,-3.6449,-3.6468,-3.6463,-3.6485,-3.6461,-3.6517,-3.6458,-3.6535,-3.6484,-3.6505,-3.6508,-3.6512,-3.6514,-3.6447,-3.6549,-3.6725,-3.6742,-3.652,-3.6518,-3.6516,0,-3.6292,-3.6356,-3.6424,-3.6437,-3.6453,-3.6485,-3.6493,-3.6509,-3.6532,-3.656,-3.6574,-3.6609,-3.6628,-3.6655,-3.6641,-3.6599,-3.6721,-3.666,-3.6719,-3.6719,-3.6745,-3.6743,-3.6925,-3.6761,-3.6761,-3.676,-3.676,0,-3.6429,-3.6491,-3.6475,-3.6516,-3.6585,-3.6564,-3.6633,-3.6636,-3.665,-3.6692,-3.6659,-3.6698,-3.6678,-3.6716,-3.6706,-3.6771,-3.678,-3.6778,-3.6774,-3.678,-3.678,-3.6792,-3.6783,-3.6765,-3.6764,-3.6763,-3.6762,0,-3.6566,-3.6557,-3.6628,-3.6638,-3.6642,-3.6693,-3.6701,-3.674,-3.6737,-3.679,-3.6801,-3.6795,-3.6839,-3.6828,-3.6876,-3.6868,-3.6951,-3.6938,-3.6945,-3.6941,-3.6999,-3.6994,-3.7193,-3.7218,-3.704,-3.7042,-3.7044,0,-3.6653,-3.67,-3.6715,-3.6741,-3.6752,-3.6794,-3.6817,-3.6799,-3.6825,-3.6851,-3.6887,-3.6928,-3.6959,-3.7031,-3.7031,-3.7067,-3.7053,-3.7121,-3.7058,-3.7063,-3.7053,-3.7049,-3.7054,-3.7133,-3.7135,-3.7137,-3.7138,0,-3.6808,-3.6802,-3.6837,-3.6871,-3.6901,-3.6927,-3.695,-3.6973,-3.6957,-3.6988,-3.7032,-3.7057,-3.7106,-3.7147,-3.718,-3.7189,-3.7161,-3.7158,-3.7173,-3.7179,-3.718,-3.7179,-3.6977,-3.7153,-3.7151,-3.715,-3.7149,-3.7149,-3.6921,-3.6961,-3.6978,-3.7019,-3.7035,-3.7058,-3.7095,-3.7096,-3.7133,-3.7171,-3.7159,-3.721,-3.7228,-3.7271,-3.7284,-3.7323,-3.7297,-3.732,-3.7325,-3.733,-3.7337,-3.7176,-3.7329,-3.7329,-3.7328,-3.7328,-3.7328,0,-3.7073,-3.7082,-3.712,-3.7154,-3.7186,-3.7159,-3.7183,-3.7212,-3.7257,-3.7277,-3.7309,-3.736,-3.74,-3.7404,-3.7442,-3.7473,-3.7461,-3.7483,-3.7479,-3.7482,-3.7358,-3.7341,-3.7492,-3.7492,-3.7492,-3.7492,-3.7492,-3.7492,-3.7155,-3.7221,-3.7218,-3.7291,-3.73,-3.735,-3.7366,-3.7387,-3.7403,-3.7462,-3.7495,-3.7498,-3.7511,-3.755,-3.7585,-3.7586,-3.76,-3.7627,-3.7623,-3.7507,-3.749,-3.7475,-3.7458,-3.7631,-3.7631,-3.7742,-3.7743,-3.7744]},{"header":{"parameterUnit":"m.s-1","parameterCategory":1,"la1":30.2991,"la2":30.254,"lo1":-89.0895,"lo2":-89.0444,"dx":0.0017,"dy":0.0017,"nx":28,"ny":28,"refTime":"2023-02-06T09:00:00:Z","depth":0,"parameterNumber":3,"parameterNumberName":"V-component_of_WINDS"},"data":[0,0,0,0,0,0,0,0,0,0,0,0,0,0,0,0,0,0,0,0,0,0,0,0,0,0,0,0,0,0,0,0,0,0,0,0,0,0,0,0,0,0,0,0,0,0,0,0,0,0,0,0,0,0,0,0,0,0,0.6131,0.6132,0,0.6156,0.6156,0.6156,0.6167,0.6167,0.6167,0.6167,0.6191,0.6192,0.6193,0,0,0,0,0,0,0,0,0,0,0,0,0,0.6095,0.6095,0.6131,0.6132,0.6132,0.6156,0.6156,0.6156,0.6167,0.6167,0.6167,0.6167,0.6191,0.6192,0.6193,0,0,0,0,0,0,0,0,0,0,0,0,0,0.6114,0.6096,0.6131,0.614,0.6141,0.6156,0.6156,0.6157,0.6167,0.6167,0.6167,0.6167,0.6191,0.6192,0.6193,0.6201,0,0,0.6196,0.6197,0,0,0,0,0,0,0,0,0.6113,0.6115,0.6138,0.6139,0.6141,0.6158,0.6152,0.6171,0.6167,0.6157,0.6167,0.6167,0.618,0.6182,0.6187,0.6202,0.6203,0.6196,0.6197,0.6197,0.6198,0,0,0,0,0,0,0,0.6112,0.6114,0.6141,0.6139,0.614,0.6143,0.6146,0.6156,0.6169,0.6158,0.6159,0.6161,0.6181,0.6186,0.6188,0.6203,0.6196,0.6197,0.6198,0.6198,0.6228,0.6228,0,0,0,0,0,0,0.6109,0.6113,0.614,0.6142,0.6126,0.6144,0.6147,0.6153,0.6169,0.6171,0.6162,0.6162,0.6184,0.6186,0.6189,0.62,0.6197,0.6198,0.6199,0.6227,0.6228,0.6228,0,0,0,0,0,0,0.6108,0.6111,0.6139,0.6128,0.6132,0.6145,0.6151,0.6153,0.6158,0.6171,0.6174,0.6164,0.6184,0.6187,0.6198,0.6201,0.6199,0.62,0.6227,0.6227,0.6228,0.6222,0,0,0,0,0,0,0.6107,0.6111,0.6113,0.6128,0.6132,0.6148,0.6151,0.6154,0.616,0.6161,0.6175,0.6177,0.6184,0.6196,0.6199,0.6202,0.62,0.6227,0.6227,0.6228,0.6222,0.6222,0.6222,0,0,0,0,0,0.6105,0.611,0.6113,0.6117,0.6136,0.6148,0.6151,0.6159,0.616,0.6163,0.6172,0.6176,0.62,0.6197,0.62,0.6204,0.6227,0.6227,0.6228,0.6222,0.6222,0.6222,0,0,0,0,0,0,0.6095,0.6112,0.6116,0.6125,0.6135,0.615,0.6154,0.6159,0.6169,0.6169,0.6179,0.6182,0.6193,0.6199,0.6196,0.6213,0.6214,0.6215,0.6208,0.6209,0.6209,0.6207,0.6201,0,0,0,0,0,0.6094,0.6103,0.6117,0.6124,0.6129,0.6141,0.6146,0.6152,0.6163,0.6167,0.6177,0.6187,0.6197,0.6203,0.6213,0.6223,0.6227,0.6227,0.6227,0.6227,0.6228,0.6235,0.6236,0.6229,0.6229,0.6229,0,0,0.6092,0.6102,0.6107,0.6122,0.6131,0.614,0.6144,0.6153,0.616,0.6168,0.618,0.6187,0.6199,0.621,0.6216,0.6216,0.6231,0.6227,0.6227,0.6228,0.6236,0.6236,0.6237,0.6229,0.6229,0.6229,0,0,0.6092,0.6101,0.6108,0.6117,0.613,0.6138,0.614,0.6154,0.616,0.6171,0.6178,0.6187,0.6203,0.6212,0.6219,0.6225,0.623,0.6228,0.6228,0.6235,0.6236,0.6236,0.624,0.6241,0.6229,0.6229,0.6229,0,0.6088,0.6102,0.6111,0.6121,0.6128,0.6137,0.6145,0.6153,0.6168,0.6173,0.6174,0.6196,0.6205,0.6219,0.622,0.6225,0.6228,0.6226,0.6235,0.6236,0.6236,0.624,0.6241,0.6228,0.6228,0.6228,0.6228,0,0.6096,0.6106,0.611,0.6126,0.6134,0.6142,0.6154,0.6161,0.6166,0.6175,0.6187,0.6198,0.6211,0.6215,0.622,0.623,0.6231,0.6233,0.6234,0.6237,0.624,0.6241,0.6228,0.6228,0.6228,0.6228,0,0,0.609,0.6112,0.6114,0.6121,0.6137,0.6145,0.6155,0.6168,0.6174,0.6185,0.6194,0.6208,0.6211,0.6219,0.6226,0.6232,0.6238,0.6234,0.6234,0.6235,0.6251,0.625,0.6251,0.6241,0.6241,0.6242,0.625,0,0.6093,0.6111,0.6121,0.6135,0.6144,0.6154,0.6162,0.6173,0.6182,0.6192,0.6201,0.6212,0.6214,0.6219,0.6226,0.6236,0.6241,0.6235,0.625,0.6251,0.6247,0.6252,0.625,0.6258,0.6252,0.6252,0.6252,0,0.6099,0.6111,0.6126,0.6142,0.6146,0.6154,0.6168,0.6177,0.619,0.6196,0.6205,0.6212,0.6224,0.6224,0.6241,0.6236,0.6243,0.6249,0.625,0.6252,0.6252,0.6255,0.6261,0.6262,0.6254,0.6254,0.6254,0,0.6094,0.6114,0.6125,0.6132,0.6151,0.6156,0.6164,0.6178,0.6185,0.6198,0.6203,0.6216,0.6224,0.6234,0.6245,0.6244,0.6261,0.6261,0.6267,0.6266,0.627,0.6269,0.6277,0.6273,0.6273,0.6273,0.6273,0,0.6097,0.6106,0.6124,0.6131,0.6142,0.6154,0.6164,0.6173,0.6185,0.6195,0.6204,0.6213,0.6226,0.6237,0.6246,0.6259,0.6262,0.6268,0.627,0.6267,0.6267,0.6272,0.6272,0.6274,0.6273,0.6273,0.6273,0,0.6093,0.6105,0.6119,0.6137,0.6141,0.6149,0.6164,0.6172,0.6181,0.6194,0.6197,0.6212,0.6226,0.6238,0.6256,0.6261,0.6275,0.6278,0.6271,0.6272,0.6277,0.6277,0.6289,0.6292,0.6285,0.6285,0.6285,0,0.6095,0.6102,0.6121,0.6128,0.6137,0.6148,0.6157,0.6169,0.6178,0.6194,0.6201,0.6215,0.6227,0.6249,0.6261,0.6275,0.6279,0.6282,0.6281,0.6278,0.628,0.6279,0.6281,0.6282,0.6282,0.6282,0.6282,0,0.6096,0.6102,0.6114,0.6128,0.6138,0.615,0.6162,0.6168,0.6183,0.6192,0.6207,0.6216,0.6235,0.625,0.6266,0.6275,0.6281,0.6282,0.6285,0.6282,0.6278,0.6281,0.6272,0.6282,0.6282,0.6282,0.6282,0.6282,0.6095,0.6103,0.6118,0.6131,0.6142,0.6154,0.6162,0.6174,0.6186,0.6203,0.6209,0.6224,0.6239,0.6261,0.6271,0.6283,0.6284,0.6287,0.6287,0.6288,0.6288,0.6276,0.6286,0.6286,0.6286,0.6286,0.6286,0,0.6098,0.6108,0.612,0.6138,0.6149,0.6154,0.6169,0.6178,0.6191,0.6204,0.6217,0.6234,0.6249,0.6263,0.6279,0.6286,0.629,0.629,0.629,0.6292,0.6286,0.6283,0.6287,0.6287,0.6287,0.6287,0.6287,0.6287,0.61,0.6114,0.6122,0.6142,0.6152,0.6167,0.6175,0.6186,0.6197,0.6217,0.6229,0.6239,0.6253,0.627,0.6284,0.6288,0.6294,0.6294,0.6298,0.6292,0.6292,0.6292,0.6289,0.6295,0.6295,0.6304,0.6304,0.6304]}]]